This demonstration page uses our WeatherBlox Daily Observations layout. Learn more.

Left ArrowRight Arrow

41.86663, -103.66717

Hourly Observations for September 22, 2018

Temp ( °F °C ) Dew Point ( °F °C ) Humidity (%) Winds ( mph kmh ) Pressure ( in mb ) Visibility ( mi km ) Precip ( " mm )
12:53 am 00:53 Clear 59 15 44 6.7 58 58 ESE 16 26 30.08 1019 10 16 N/A
1:53 am 01:53 Clear 61 16.1 46 7.8 58 58 SSE 18 30 30.05 1018 10 16 N/A
2:53 am 02:53 Clear 59 15 46 7.8 62 62 SE 9 15 30.04 1017 10 16 N/A
3:53 am 03:53 Clear 55 12.8 46 7.8 72 72 ENE 7 11 30.03 1017 10 16 N/A
4:53 am 04:53 Clear 50 10 45 7.2 83 83 E 9 15 30.02 1017 10 16 N/A
5:53 am 05:53 Clear 48 8.9 45 7.2 89 89 ESE 9 15 30.03 1017 10 16 N/A
6:53 am 06:53 Sunny 45 7.2 44 6.7 97 97 E 7 11 30.04 1017 10 16 N/A
7:53 am 07:53 Sunny 50 10 46 7.8 86 86 ESE 7 11 30.04 1017 10 16 N/A
8:53 am 08:53 Sunny 57 13.9 47 8.3 69 69 SE 5 7 30.03 1017 10 16 N/A
9:53 am 09:53 Sunny 65 18.3 48 8.9 54 54 SE 3 6 30.01 1016 10 16 N/A
10:53 am 10:53 Sunny 71 21.7 45 7.2 39 39 N N/A 30.00 1016 10 16 N/A
11:53 am 11:53 Sunny 80 26.7 41 5 25 25 WSW 5 7 29.95 1014 10 16 N/A
12:53 pm 12:53 Sunny 86 30 32 undefined 14 14 NW 8 13 29.91 1013 10 16 N/A
1:53 pm 13:53 Sunny 89 31.7 27 -2.8 11 11 WNW 9 15 29.87 1011 10 16 N/A
2:53 pm 14:53 Sunny 90 32.2 19 -7.2 7 7 W 17 28 29.85 1011 10 16 N/A
3:53 pm 15:53 Sunny 90 32.2 20 -6.7 8 8 W 7 11 29.83 1010 10 16 N/A
4:53 pm 16:53 Sunny 90 32.2 19 -7.2 7 7 WNW 6 9 29.83 1010 10 16 N/A
5:53 pm 17:53 Sunny 89 31.7 21 -6.1 8 8 N N/A 29.83 1010 10 16 N/A
6:53 pm 18:53 Clear 73 22.8 37 2.8 27 27 ESE 3 6 29.87 1012 7 11 N/A
7:53 pm 19:53 Clear 63 17.2 39 3.9 41 41 E 6 9 29.88 1012 10 16 N/A
8:53 pm 20:53 Clear 60 15.6 37 2.8 42 42 undefined N/A 29.88 1012 10 16 N/A
9:53 pm 21:53 Clear 60 15.6 40 4.4 47 47 E 7 11 29.88 1012 10 16 N/A
10:53 pm 22:53 Clear 57 13.9 41 5 55 55 NE 7 11 29.87 1012 10 16 N/A
11:53 pm 23:53 Clear 55 12.8 43 6.1 64 64 NNE 6 9 29.85 1011 10 16 N/A

Powered by AerisWeather